Starlink 34885

operational
NORAD ID: 65328 Int'l Des: 2025-189 Owner: SPXS Country: US Constellation: starlink
LEOCIRCULAR

About Starlink 34885

Description loading...

Live Position

Loading 3D Globe...

Upcoming Passes

Altitude History

Altitude vs Time

uPlot chart will show altitude changes over time

Two-Line Element Set

1 65328U 25189F 26048.09857627 .00023944 00000-0 81757-3 0 9996
2 65328 53.1598 302.4303 0001284 109.2857 250.8282 15.30215419 27893
Epoch: Feb 17, 2026 • Age: 28 hours

Current Status

Altitude 483.9 km
Velocity 7.62 km/s
Sub-Earth Point -27.37°S, 29.64°E
Launch Date Aug 27, 2025
Age 0.4 years
Type internet

Technical Details

Classification Payload
Mass 575.00 kg
Dry Mass 530.00 kg
Total Mass 575.00 kg
Length 0.30 m
Diameter 4.10 m
Span 29.00 m
Shape Box + pan
Manufacturer SPXS
Bus Type Starlink V2MO
Phase Status In Orbit
Owner/State SPXS/US

Large Constellations

Loading constellations...